EHI
0 1 2 1 0 0 0 0 0 0 0 0 0 0 0 0 0 0 0 0 1 2 3 3 3 2 1 0 0 0 0 0 0 0 0 0 0 0 0 0 0 0 0
0 1 2 2 1 0 0 0 0 0 0 0 0 0 0 0 0 0 0 0 1 2 3 3 3 2 0 0 0 0 0 0 0 0 0 0 0 0 0 0 0 0 0
0 1 3 4 2 1 0 0 0 0 0 0 0 0 0 0 0 1 1 1 1 2 3 3 3 2 0 0 0 0 0 0 0 0 0 0 0 1 1 0 0 0 0
0 0 2 3 3 2 1 0 0 0 0 0 0 0 0 0 0 1 2 1 1 1 1 2 2 1 0 0 0 0 0 0 0 0 0 0 1 2 2 1 0 0 0
0 0 1 3 3 2 1 0 0 0 0 0 0 0 0 0 0 1 1 1 0 0 0 1 1 0 0 0 0 0 0 0 0 0 0 0 1 2 2 1 0 0 0
0 0 2 3 4 2 0 0 0 0 0 0 0 0 0 0 0 0 0 0 0 0 0 0 0 0 0 0 0 0 1 1 1 0 0 0 0 1 1 0 0 0 0
1 0 1 3 4 1 0 0 0 0 0 0 0 0 0 0 0 0 0 0 0 0 0 0 0 0 0 0 0 0 1 1 1 0 0 0 1 2 1 0 0 0 0
2 1 1 2 3 2 1 0 0 0 0 0 0 0 0 0 0 0 0 0 0 0 0 0 0 0 0 1 1 1 1 1 0 0 0 1 3 3 1 0 0 0 0
3 2 1 1 2 2 1 0 0 0 0 0 1 1 1 0 0 0 0 0 0 0 0 0 0 0 2 3 5 4 3 1 0 0 0 2 5 4 1 0 0 0 0
2 1 0 0 1 1 1 0 0 0 1 1 1 2 1 0 0 0 0 0 0 1 1 1 0 1 4 6 7 6 3 1 0 0 0 2 4 3 0 0 0 0 0
1 0 0 0 0 0 0 0 0 1 2 2 1 1 1 0 0 0 0 0 1 2 2 2 1 1 3 4 5 4 2 1 0 0 0 1 2 1 0 0 0 0 0
0 0 0 0 0 0 0 0 0 1 2 1 0 0 0 0 0 0 0 0 1 2 2 2 1 0 1 1 1 1 1 0 0 0 0 1 2 1 0 0 0 0 0
1 0 0 1 1 1 1 0 0 1 1 0 0 0 0 0 0 0 0 0 1 1 1 1 0 0 0 0 0 0 0 0 0 0 1 4 4 3 1 1 1 0 0
3 2 2 4 4 4 3 2 1 1 0 0 0 0 0 0 0 0 0 0 0 0 0 0 0 0 0 0 0 0 0 0 0 0 3 7 9 7 5 3 2 1 0
8 8 8 8 7 7 6 5 3 1 1 0 0 0 0 0 0 0 0 0 0 0 0 0 0 0 0 0 0 0 0 0 0 0 3 8 11 11 9 7 5 2 0
13 15 15 12 8 7 7 5 2 1 1 0 0 0 0 0 0 0 0 0 0 0 0 0 0 0 0 0 0 0 0 0 0 0 1 5 9 12 12 11 7 3 1
16 17 18 15 9 7 6 4 2 1 0 0 0 0 0 0 0 0 0 0 0 0 0 0 0 0 0 0 0 0 0 0 0 0 0 2 5 8 11 11 8 6 3
19 18 17 15 10 7 5 4 2 1 0 0 0 1 1 0 0 0 0 0 0 0 0 0 0 0 0 0 0 0 0 0 0 0 0 0 1 3 6 8 9 9 7
21 19 17 13 8 6 4 3 3 2 1 0 1 1 0 0 0 0 0 0 0 0 0 0 0 0 0 0 0 0 0 0 0 0 0 0 0 0 2 4 8 9 7
23 23 20 14 8 5 4 3 3 2 1 0 0 0 0 0 0 0 0 0 0 0 0 0 0 0 0 0 0 0 0 0 0 0 0 0 0 0 0 1 3 4 4
28 26 24 19 14 9 6 4 3 2 1 0 0 0 0 0 0 0 0 0 0 0 0 0 0 0 0 0 0 0 0 0 0 0 0 0 0 0 0 0 0 1 1
36 31 26 24 20 15 11 7 4 2 1 1 1 0 0 0 0 0 0 0 0 0 0 0 0 0 0 0 0 0 0 0 0 0 0 0 0 0 0 0 0 0 0
44 37 29 25 22 18 13 8 6 5 3 2 1 0 0 0 0 0 0 0 0 0 0 0 0 0 0 0 0 0 0 0 0 0 0 0 0 0 0 0 0 0 0
47 42 35 28 21 16 11 8 8 7 5 3 1 0 0 0 0 0 0 0 0 0 0 0 0 0 0 0 0 0 0 0 0 0 0 0 0 0 0 0 0 0 0
50 49 43 32 21 13 9 7 7 6 4 2 0 0 0 0 1 1 1 1 0 0 0 0 0 0 0 0 0 0 0 0 0 0 0 0 0 0 0 0 0 0 0
56 54 47 34 21 13 9 7 6 5 3 1 0 0 0 1 2 2 2 2 1 1 1 1 0 0 0 0 0 0 0 0 0 0 0 0 0 0 0 0 0 0 0
Wind_Speed
2 4 11 12 12 13 13 14 14 15 15 16 16 16 17 17 18 18 18 18 18 18 18 18 18 18 18 18 18 18 18 18 18 18 17 17 17 17 17 17 16 12 17
6 6 12 12 13 13 13 13 14 14 15 16 15 16 16 16 17 17 17 17 18 17 17 17 17 17 17 17 17 17 17 17 17 17 17 15 16 16 16 16 15 10 16
7 6 9 12 12 13 13 13 13 14 14 15 15 15 15 15 16 16 16 17 17 16 16 16 16 16 15 16 16 16 16 16 16 16 15 8 10 15 16 16 16 15 15
8 6 8 12 12 12 12 12 13 13 14 14 14 14 14 15 15 15 15 15 15 15 15 15 15 15 14 14 14 14 14 14 14 14 7 6 7 14 15 15 15 15 15
7 6 8 13 12 12 12 12 12 13 13 13 14 14 14 14 14 15 15 14 14 14 14 14 14 13 13 12 12 11 11 12 13 10 6 6 6 13 14 14 14 14 14
7 6 8 13 12 12 12 11 12 12 12 12 13 13 13 13 14 14 13 13 13 13 13 12 12 11 11 10 10 9 10 11 11 7 6 5 5 12 14 14 14 13 13
7 5 7 13 12 12 12 11 11 11 11 12 12 12 12 12 13 12 12 12 12 11 11 10 9 9 9 8 8 8 9 11 8 6 5 5 6 12 13 13 13 13 12
9 7 7 12 12 11 11 11 10 10 10 11 11 11 11 11 11 11 11 11 11 10 9 9 8 7 7 6 7 8 8 10 10 8 5 5 10 12 13 13 12 12 12
9 7 5 5 7 10 11 10 10 10 10 10 10 10 10 10 10 10 10 9 9 8 7 7 6 5 5 5 5 6 7 11 7 5 7 4 10 12 13 12 12 12 11
7 6 5 4 4 4 5 9 9 9 9 9 9 9 9 9 9 9 8 7 8 7 6 5 4 3 3 3 3 5 8 9 6 5 4 6 12 12 13 12 12 11 11
7 5 5 5 4 4 4 6 7 8 8 7 6 7 6 3 3 4 6 7 6 5 4 3 2 2 1 2 2 4 6 3 6 4 4 9 12 12 12 12 11 11 10
8 6 5 6 5 4 4 4 2 3 3 2 2 3 2 2 1 3 5 6 6 5 3 2 2 1 1 1 1 3 2 4 4 4 5 12 12 12 12 12 11 11 10
9 8 7 6 5 5 3 3 2 1 2 2 3 3 2 2 1 1 1 2 2 2 1 1 1 1 1 1 0 2 3 3 3 4 6 13 12 12 12 12 12 11 11
8 7 7 6 5 4 4 3 2 2 2 2 2 3 2 2 2 2 1 1 1 1 1 1 1 1 2 2 2 2 4 3 3 3 5 13 11 12 12 12 11 11 11
7 6 6 6 6 5 4 2 3 2 2 2 2 3 3 3 3 2 1 1 2 1 2 2 2 2 2 2 2 2 4 5 5 5 4 12 12 11 12 12 12 12 12
7 6 6 6 5 5 3 3 2 2 3 2 2 3 4 3 3 2 2 2 2 2 2 2 2 2 2 1 1 2 4 5 5 6 4 8 13 12 12 12 12 12 12
8 7 6 6 5 4 4 3 2 2 3 2 2 2 3 3 3 3 2 2 2 2 2 1 2 1 1 1 1 2 3 4 5 6 5 4 6 11 13 13 12 13 13
8 7 6 6 5 4 3 2 2 2 2 2 2 2 2 3 3 2 2 2 2 1 1 2 1 1 1 1 1 1 2 2 4 5 5 5 4 5 9 13 12 12 13
9 7 6 5 5 4 3 2 2 2 2 2 2 1 2 2 3 2 2 1 1 1 1 2 1 1 1 1 2 1 1 2 3 5 5 5 5 5 4 8 12 12 14
7 7 6 5 5 4 2 2 1 1 1 1 2 2 2 2 2 2 1 1 1 1 0 1 1 1 1 1 1 0 1 2 2 3 5 5 5 6 6 6 5 8 12
7 6 6 5 4 3 2 2 1 1 1 1 2 2 2 2 2 2 1 1 1 1 1 1 1 1 1 1 1 1 2 1 1 2 2 3 3 4 4 4 3 3 4
7 7 6 6 5 4 3 2 2 2 1 1 1 1 2 2 2 2 2 2 1 1 1 1 1 1 1 1 2 1 1 2 2 1 1 2 2 2 3 4 3 3 3
8 7 7 5 5 4 3 2 1 2 1 1 0 0 1 2 2 1 2 2 2 2 1 2 2 2 1 1 1 3 2 2 1 2 0 1 1 1 1 2 2 2 3
9 7 6 6 5 4 3 3 3 2 2 2 2 1 1 1 1 1 1 2 2 1 1 2 2 2 2 1 1 1 2 3 2 1 2 1 1 1 1 1 1 1 1
9 8 6 5 4 3 3 4 3 2 2 1 1 1 0 0 0 1 1 1 1 1 1 1 1 1 2 2 1 1 1 1 2 2 1 1 1 1 1 2 2 1 1
8 7 6 5 4 3 3 3 4 4 3 2 1 1 0 1 1 1 1 1 1 1 1 1 1 1 1 2 1 1 2 1 2 2 2 1 0 0 1 2 2 2 2
Wind_Direction
113 110 103 98 93 89 87 85 84 82 82 82 82 85 88 91 92 92 93 94 94 95 96 97 99 102 103 105 107 108 109 110 111 111 111 112 113 112 112 111 109 108 111
140 120 108 102 98 94 91 88 86 85 85 86 87 88 88 91 93 93 94 95 96 96 96 96 97 100 102 105 107 109 110 110 110 110 109 110 111 113 113 113 112 116 115
124 116 110 107 103 99 97 94 91 89 89 91 92 92 92 93 96 97 97 97 97 97 97 96 97 99 101 104 107 109 111 111 112 111 108 101 108 112 114 116 116 116 116
126 120 117 113 107 103 100 97 95 93 93 94 96 97 98 97 97 98 99 100 100 99 99 99 98 99 101 104 107 110 113 116 118 115 103 100 108 113 114 116 117 117 119
120 119 123 116 111 108 104 100 98 97 96 97 99 101 101 101 101 100 100 101 101 101 101 100 100 101 102 103 106 107 110 114 118 111 101 95 103 118 118 119 120 121 122
123 124 128 121 117 114 110 106 103 100 99 100 101 102 103 102 102 103 103 103 103 103 103 102 102 102 100 100 102 105 107 117 114 109 107 107 111 124 124 124 123 124 124
131 129 128 126 123 120 116 112 109 106 105 105 104 105 105 105 104 105 106 106 107 107 106 105 103 102 101 99 97 102 109 120 117 113 114 116 126 130 129 127 127 127 126
136 134 131 131 129 126 123 120 116 114 112 111 111 111 110 109 108 108 110 110 110 111 111 108 104 100 98 95 94 101 113 122 125 124 119 125 136 133 132 132 132 132 131
137 135 133 135 131 133 131 127 125 122 118 116 117 118 119 118 117 116 116 117 116 116 115 113 109 102 94 89 94 103 114 120 123 130 134 134 141 139 138 138 138 138 137
139 142 141 135 129 129 135 137 135 133 130 126 126 126 128 127 126 127 126 127 127 127 126 120 114 104 87 75 88 109 119 120 132 133 130 148 148 147 145 145 144 144 144
145 151 153 152 150 151 156 148 143 143 144 139 135 136 127 110 117 131 143 144 143 144 144 143 136 111 61 40 76 109 114 122 130 135 144 155 155 154 153 152 153 152 152
160 167 164 164 167 170 164 141 150 155 152 151 159 145 134 145 176 160 166 162 162 166 174 182 179 190 29 352 27 98 116 130 134 147 162 164 164 162 160 160 161 161 161
164 168 168 171 169 171 156 153 164 166 165 175 179 174 161 159 163 155 165 173 178 187 195 216 272 288 284 285 270 134 148 138 149 160 168 169 170 168 168 169 170 171 171
155 161 160 161 159 159 151 162 165 169 175 176 180 172 156 146 150 169 183 192 192 202 197 220 247 262 266 263 241 163 153 152 156 155 170 171 172 173 173 173 175 175 176
143 148 150 148 145 145 143 163 159 176 184 177 167 164 155 154 164 171 188 193 197 192 186 193 223 250 257 259 232 163 156 164 160 163 174 178 179 181 181 182 184 184 184
143 147 146 143 145 141 136 138 148 165 168 161 161 169 153 157 162 164 180 192 200 200 194 195 207 226 244 241 213 163 162 168 171 172 177 184 188 189 190 191 192 194 194
154 152 150 150 147 141 139 143 138 154 156 158 167 175 160 157 162 165 177 200 208 200 189 192 206 216 237 236 208 173 167 175 175 177 178 185 192 199 198 199 200 201 202
156 157 163 156 150 151 150 142 131 147 150 156 162 170 165 166 166 159 169 209 213 196 188 193 192 182 235 226 221 216 179 180 181 183 185 188 190 201 207 206 206 206 207
159 158 159 151 158 165 159 146 136 141 153 163 166 176 177 167 162 154 172 213 212 186 196 209 177 173 202 228 224 220 204 191 190 190 190 191 193 196 200 212 215 213 214
155 151 151 153 161 158 145 124 108 111 145 166 176 186 182 173 163 154 178 216 179 141 197 198 188 185 189 203 220 245 248 226 203 195 194 189 192 196 199 209 215 220 221
151 150 155 154 165 154 141 147 148 170 187 191 200 190 185 181 163 155 176 187 163 168 212 199 166 169 222 142 75 349 332 300 235 206 185 175 189 195 193 199 199 207 224
162 164 163 165 168 168 166 169 170 167 179 183 194 189 190 178 173 172 181 182 184 182 203 209 165 164 239 151 136 116 344 337 331 262 152 175 194 186 184 191 197 201 208
169 174 169 168 169 172 164 135 106 77 62 62 54 245 231 185 176 172 162 168 178 176 198 219 195 178 205 247 158 149 159 229 297 335 6 119 130 143 173 171 187 202 209
176 173 164 165 167 169 154 147 153 160 176 198 193 206 241 198 187 177 169 165 176 179 196 218 186 177 167 203 243 195 179 170 164 287 344 45 87 103 121 143 170 178 185
170 168 165 160 161 161 154 159 158 160 179 185 157 155 206 303 248 199 185 178 185 189 201 215 180 160 165 175 188 192 169 162 152 156 232 319 24 44 87 97 87 86 85
162 161 161 157 159 154 150 150 155 160 161 149 136 147 210 281 299 284 180 171 187 181 187 188 164 144 157 163 173 164 159 170 183 160 185 207 189 16 62 68 72 70 70